Printer-friendly version

IAU Minor Planet Center

Minor Planet Center

MPEC 2009-D05 : 2009 CV5

The following Minor Planet Electronic Circular may be linked-to from your own Web pages, but must not otherwise be redistributed electronically.


Read MPEC 2009-D04 Read MPEC 2009-D06


M.P.E.C. 2009-D05                                Issued 2009 Feb. 16, 02:55 UT

     The Minor Planet Electronic Circulars contain information on unusual
         minor planets and routine data on comets.  They are published
   on behalf of Commission 20 of the International Astronomical Union by the
          Minor Planet Center, Smithsonian Astrophysical Observatory,
                          Cambridge, MA 02138, U.S.A.

             Prepared using the Tamkin Foundation Computer Network

                              MPC@CFA.HARVARD.EDU
          URL http://www.cfa.harvard.edu/iau/mpc.html  ISSN 1523-6714

                                   2009 CV5

Observations:
     K09C05V* C2009 02 15.26778 09 38 10.53 +29 30 32.3          19.1 V ED005703
     K09C05V  C2009 02 15.27861 09 38 18.52 +29 30 14.6          19.0 V ED005703
     K09C05V  C2009 02 15.28388 09 38 22.30 +29 30 05.1          18.4 V ED005703
     K09C05V  C2009 02 15.30771 09 38 39.19 +29 29 17.8          19.2   ED005704
     K09C05V  C2009 02 15.30821 09 38 40.31 +29 29 21.5          19.8 V ED005703
     K09C05V  C2009 02 15.30941 09 38 41.22 +29 29 19.4          18.8 V ED005703
     K09C05V  C2009 02 15.31996 09 38 48.27 +29 28 55.5          19.5   ED005704
     K09C05V  C2009 02 15.33179 09 38 57.05 +29 28 31.6          18.9   ED005704
     K09C05V  C2009 02 15.34371 09 39 05.88 +29 28 08.0          19.4   ED005704
     K09C05V  C2009 02 15.36190 09 39 20.05 +29 27 36.7          19.0 V ED005703
     K09C05V  C2009 02 15.36244 09 39 20.52 +29 27 36.2          18.2 V ED005703
     K09C05V  C2009 02 15.36299 09 39 20.88 +29 27 33.7          18.8 V ED005703
     K09C05V  C2009 02 15.36353 09 39 21.34 +29 27 33.4          19.4 V ED005703
     K09C05V  C2009 02 15.52097 09 41 24.00 +29 21 35.0          18.9 V ED005703
     K09C05V  C2009 02 15.52160 09 41 24.32 +29 21 36.0          19.0 V ED005703
     K09C05V  C2009 02 15.52222 09 41 24.93 +29 21 33.3          19.3 V ED005703
     K09C05V  C2009 02 15.52286 09 41 25.36 +29 21 31.6          19.1 V ED005703
     K09C05V  C2009 02 15.77611 09 45 22.07 +29 12 29.3          19.2 V ED005104
     K09C05V  C2009 02 15.77818 09 45 24.13 +29 12 25.3          19.1 V ED005104
     K09C05V  C2009 02 15.77983 09 45 25.31 +29 12 23.0          19.4 V ED005104
     K09C05V  C2009 02 15.85890 09 46 33.70 +29 10 04.4          19.0 C ED005493
     K09C05V  C2009 02 15.85979 09 46 34.45 +29 10 02.7          19.0 C ED005493
     K09C05V  C2009 02 15.86066 09 46 35.16 +29 10 01.0          18.9 C ED005493
     K09C05V  C2009 02 15.89609 09 47 01.78 +29 08 44.3          19.1 V ED005B33
     K09C05V  C2009 02 15.90296 09 47 07.43 +29 08 29.5          18.6 V ED005B33
     K09C05V  C2009 02 15.90982 09 47 13.04 +29 08 15.3          19.0 V ED005B33
     K09C05V  C2009 02 15.93623 09 47 37.40 +29 07 34.4          18.9 C ED005493
     K09C05V  C2009 02 15.93712 09 47 38.14 +29 07 32.5          18.7 C ED005493
     K09C05V  C2009 02 15.93799 09 47 38.85 +29 07 30.6          18.8 C ED005493

Observer details:
104 San Marcello Pistoiese.  Observers L. Tesi, G. Fagioli, M. Mazzucato,
    E. Tognelli.  Measurer L. Tesi.  0.60-m f/4 reflector + CCD.
493 Calar Alto.  Observers F. Hormuth, J. C. Datson.  1.23-m reflector + CCD.
703 Catalina Sky Survey.  Observer A. Boattini.  Measurers E. C. Beshore,
    A. Boattini, G. J. Garradd, A. R. Gibbs, A. D. Grauer, R. E. Hill,
    R. A. Kowalski, S. M. Larson, R. H. McNaught.  0.68-m Schmidt + CCD.
704 Lincoln Laboratory ETS, New Mexico.  Observers M. Bezpalko, D. Torres,
    R. Kracke, G. Spitz, J. Kistler.  Measurers J. Stuart, S. Scruggs.  1.0-m
    f/2.15 reflector + CCD.
B33 Libbiano Observatory, Peccioli.  Observers P. Bacci, R. Emilio.  Measurer
    P. Bacci.  0.5-m f/8 Ritchey-Chretien + CCD.

Orbital elements:
2009 CV5                                                 Earth MOID = 0.0068 AU
Epoch 2008 Nov. 30.0 TT = JDT 2454800.5                 MPC
M 325.66415              (2000.0)            P               Q
n   0.34855484     Peri.  175.78273     -0.98817512     -0.15331746
a   1.9996561      Node   355.39672     +0.13996787     -0.89687843
e   0.4991662      Incl.    1.37105     +0.06260132     -0.41485279
P   2.83           H   24.7           G   0.15           U   8
Residuals in seconds of arc
090215 703  0.5-  0.4-    090215 703  0.1-  0.5+    090215 493  0.1-  0.3+
090215 703  0.1-  0.5+    090215 703  0.8-  0.9-    090215 493  0.0   0.3+
090215 703  1.4-  0.3+    090215 703  0.0   0.1-    090215 493  0.2-  0.2+
090215 704  0.9+  0.6+    090215 703 (1.5+  1.1-)   090215 B33  0.1+  0.5+
090215 703  0.1-  0.5+    090215 703 (1.0-  1.4+)   090215 B33  0.4+  0.2-
090215 703  0.3+  0.6+    090215 703  0.3+  0.2+    090215 B33  0.2+  0.2-
090215 704 (1.2+  1.5+)   090215 703  0.9-  0.1+    090215 493  0.4-  0.4+
090215 704  1.3+  0.6+    090215 104 (1.3-  0.6+)   090215 493  0.3-  0.3+
090215 704  0.8+  0.6+    090215 104 (2.8+  0.3+)   090215 493  0.3-  0.2+
090215 703  1.0-  0.1-    090215 104  0.1+  0.9+

Ephemeris:
2009 CV5                 a,e,i = 2.00, 0.50, 1                   q = 1.0015
Date    TT    R. A. (2000) Decl.     Delta      r     Elong.  Phase     V
2009 02 08    08 35.09   +30 40.2    0.0763   1.059   160.4    18.2    20.2
2009 02 13    09 11.83   +30 17.8    0.0564   1.041   161.3    17.7    19.5
2009 02 18    10 22.47   +27 18.5    0.0393   1.026   163.9    15.5    18.6
2009 02 23    12 27.99   +15 17.2    0.0292   1.015   149.5    29.6    18.3
2009 02 28    14 42.93   -04 36.4    0.0323   1.007   119.1    59.3    19.4
2009 03 05    16 05.01   -16 21.2    0.0455   1.002   102.0    75.5    20.6
2009 03 10    16 48.97   -21 33.8    0.0624   1.001    95.9    80.5    21.5

Timothy B. Spahr             (C) Copyright 2009 MPC           M.P.E.C. 2009-D05

Read MPEC 2009-D04 Read MPEC 2009-D06


Our Web policy. Index to the CBAT/MPC/ICQ pages.


Valid HTML 4.01!